User: anonymous   Login
Location: Zagreb
(45.8000°N, 16.0000°E)
Time: 16:11:57
(UTC+02:00)
Language:

Tiros 1 despin weight - Orbit

View from above orbital plane
View from above orbital plane
View from above satellite
View from above satellite

Ground track
Ground track

The orbit data is extracted from the following two-line orbital elements,

1 00115U 60002D   24198.27268576  .00005004  00000-0  53358-3 0  9998
2 00115  48.1644 291.2823 0031413 350.6992   9.3338 14.89881993413272
Epoch (UTC): 16 July 2024 06:32:40
Eccentricity: 0.0031413
inclination: 48.1644°
perigee height: 576 km
apogee height: 620 km
right ascension of ascending node: 291.2823°
argument of perigee: 350.6992°
revolutions per day: 14.89881993
mean anomaly at epoch: 9.3338°
orbit number at epoch: 41327

The dashed part of the orbit path shows where the satellite is in the earth's shadow,  

DLR